View from above orbital plane
|
View from above satellite
|
Ground track
|
The orbit data is extracted from the following two-line orbital elements,
1 23318U 94066B 21104.55802299 .00000063 00000-0 53593-5 0 9999
2 23318 82.5390 312.6210 0023288 346.6318 13.4275 14.78903071428900
Epoch (UTC): | 14 April 2021 13:23:33 |
Eccentricity: | 0.0023288 |
inclination: | 82.5390° |
perigee height: | 616 km |
apogee height: | 649 km |
right ascension of ascending node: | 312.6210° |
argument of perigee: | 346.6318° |
revolutions per day: | 14.78903071 |
mean anomaly at epoch: | 13.4275° |
orbit number at epoch: | 42890 |
The dashed part of the orbit path shows where the satellite is in the earth's shadow,
|
|